Voltar ao catálogo

MIDAS 4 DEB

LostPO
NORAD 23933·DEBRIS·🇺🇸 United States

Lançado Oct 21, 1961 de Vandenberg Space Force Base

Loading…

Próximas Passagens (próximas 24 horas)

TLE

ObsoletoSource: Space-Track

Época: Dec 25, 2016, 13:18 UTC

1 23933U 61028G   16360.55419484 -.00000004  00000-0  00000+0 0  9997
2 23933  95.8896 286.5123 0760870 200.3341 286.6615  8.70687693814006

Acompanhe MIDAS 4 DEB em tempo real com AllMySat

Download on the App Store